Location: Malvern Link
(52.1333°N, 2.3000°W)
Time: 10:57:05
(UTC+00:00)

MOZHAYETS 4 - Pass Details

Date: 06 July 2022
Orbit: 660 x 679 km, 98.2° (Epoch: 10 August)

Event Time Altitude Azimuth Distance (km) Brightness Sun altitude
Rises 00:30:21 0° 108° (ESE) 3,022 11.0 -15.1°
Reaches altitude 10° 00:33:35 10° 83° (E) 2,109 10.4 -15.0°
Maximum altitude 00:35:54 14° 53° (NE) 1,854 10.6 -15.0°
Drops below altitude 10° 00:38:14 10° 22° (NNE) 2,109 11.5 -15.0°
Sets 00:41:27 0° 358° (N) 3,024 12.9 -14.9°
